GLOBALSTAR M025

Satellite information

Favourite Embed

Satellite Type and Status

PAYLOADIN ORBIT

Key statistics

Satellite GLOBALSTAR M025 at a glance.

Uptime

9524

Days in orbit

Revolutions

≈ 11.2

Per day

Orbit

MEO

Medium Earth Orbit

Inclination

52.0

Latest

Satellite identification and parameters

Extended collection of information and parameters for GLOBALSTAR M025.

Object identification

Identified? True

Debris? False

Object name: GLOBALSTAR M025

International designator: 1999-031A

Object number (NORAD): 25770

Object ID (CCSDS): 25770

Country: GLOBALSTAR (GLOB)

Current information (Y/N): Y

RCS size: LARGE

Orbital parameters

Period: 128.278 minutes

Inclination: 51.9812 deg

SMA: 8425.5 km

Apoapsis: 2048.388 km

Periapsis: 2046.342 km

RAAN: 115.2149 deg

Eccentricy: 0.0001214

Argument of periapsis: 179.3642 deg

Mean anomaly: 330.336 deg

Mean motion: 11.22559179 rev/day

Mean motion (dot): -0.00000069 rev/day2

B* drag term: -0.000059075 1/REarth

Two-line elements (TLE)

Creation date: July 6, 2025, 6:05 p.m.

Reference frame: TEME

Reference center: EARTH

Epoch: July 6, 2025, 4:55 a.m. UTC

TLE line 0: 0 GLOBALSTAR M025

TLE line 1: 1 25770U 99031A 25187.20488148 -.00000069 00000-0 -59075-4 0 9998

TLE line 2: 2 25770 51.9812 115.2149 0001214 179.3642 330.3360 11.22559179483849

Live tracking on map

Real-time ground track for satellite GLOBALSTAR M025.

In-orbit conjunctions

There are no conjunctions computed for GLOBALSTAR M025, at the moment. Check back to stay up to date, as we update our databases every day.

Go to all conjunctions

Associated space launch

The Globalstar global mobile communications network offers global, digital real time voice, data and fax via a constellation of 48 minisatellites. The constellation operates in a 1410 km orbit inclined at 52 degrees, and will also have 8 spares. The satellites were built by Space Systems Loral and Alenia Aerospazio in Rome, Italy.

GLOBALSTAR M025 was lifted into orbit during the mission ‘Delta 7420-10C | Globalstar 25,47,49,52’, on board a Delta 7420-10C space rocket.

The launch took place on June 10, 1999, 1:48 p.m. from Space Launch Complex 17B.

For more information about the launch, click the button.

Launch to space Delta 7420-10C | Globalstar 25,47,49,52
Delta 7420-10C | Globalstar 25,47,49,52

Agency: N/A

Status: Launch Successful

Launch date: June 10, 1999, 1:48 p.m. UTC

Rocket: Delta 7420-10C

Launch pad: Space Launch Complex 17B

Location: Cape Canaveral SFS, FL, USA

...

Latest news about this satellite

There are no fresh news available about this satellite. Check back as we update our databases every day.


Newsletter sign-up

Weekly statistics, charts and insights to help you stay on top of the space industry.